DW9440 Weather Reports


Display with metric or nautical units.
time (UTC)temp
F
wind
direction
speed
MPH
gust
MPH
rain 1hr
in
rain 24hr
in
rain mn
in
humidity
%
barometer
mb
20260906031504 80 62 5.0 13.0 0.00 0.00 0.00 76 1012.9
20260906030004 81 60 6.0 10.0 0.00 0.00 0.00 76 1012.8
20260906024501 82 52 3.0 7.0 0.00 0.00 0.00 77 1012.7
20260906023000 82 62 3.0 8.0 0.00 0.00 0.00 78 1012.5
20260906021502 83 46 5.0 11.0 0.00 0.00 0.00 77 1012.2
20260906014614 84 49 2.0 5.0 0.00 0.00 0.00 77 1011.7
20260906013059 84 38 0.0 2.0 0.00 0.00 0.00 76 1011.4
20260906011604 85 13 0.0 1.0 0.00 0.00 0.00 76 1011.3
20260906010058 85 3 0.0 3.0 0.00 0.00 0.00 75 1011.2
20260906004559 86 47 2.0 4.0 0.00 0.00 0.00 74 1011.0
20260906003105 87 31 0.0 2.0 0.00 0.00 0.00 73 1011.0
20260906001555 87 44 2.0 5.0 0.00 0.00 0.00 72 1011.2
20260906000056 88 13 3.0 6.0 0.00 0.00 0.00 71 1011.1
20260905234607 89 349 2.0 8.0 0.00 0.00 0.00 69 1010.9
20260905233054 90 57 4.0 9.0 0.00 0.00 0.00 67 1011.1
20260905231556 91 30 4.0 8.0 0.00 0.00 0.00 66 1011.0
20260905230053 91 55 3.0 8.0 0.00 0.00 0.00 64 1010.8
20260905224551 92 23 5.0 10.0 0.00 0.00 0.00 63 1010.9
20260905223052 92 54 3.0 9.0 0.00 0.00 0.00 62 1010.9
20260905221550 92 299 3.0 6.0 0.00 0.00 0.00 62 1010.9
20260905220052 92 51 1.0 10.0 0.00 0.00 0.00 62 1010.9
20260905214601 93 41 3.0 6.0 0.00 0.00 0.00 59 1010.9
20260905213048 93 322 4.0 11.0 0.00 0.00 0.00 60 1010.9
20260905211546 94 48 3.0 9.0 0.00 0.00 0.00 60 1011.0
20260905210047 94 39 2.0 8.0 0.00 0.00 0.00 61 1011.0
20260905204543 95 35 3.0 7.0 0.00 0.00 0.00 58 1011.1
20260905203043 95 356 2.0 4.0 0.00 0.00 0.00 57 1011.2
20260905201542 96 13 3.0 6.0 0.00 0.00 0.00 55 1011.3
20260905200046 96 326 0.0 8.0 0.00 0.00 0.00 56 1011.3
20260905194541 95 41 3.0 9.0 0.00 0.00 0.00 54 1011.5
20260905193039 99 266 1.0 4.0 0.00 0.00 0.00 51 1011.5
20260905191536 98 32 3.0 7.0 0.00 0.00 0.00 51 1011.5
20260905190035 96 244 1.0 3.0 0.00 0.00 0.00 54 1011.5
20260905184538 97 233 2.0 5.0 0.00 0.00 0.00 54 1011.7
20260905183036 96 105 1.0 5.0 0.00 0.00 0.00 53 1011.8
20260905181532 97 278 2.0 7.0 0.00 0.00 0.00 53 1012.0
20260905180030 96 275 5.0 7.0 0.00 0.00 0.00 51 1012.1
20260905174535 96 263 3.0 6.0 0.00 0.00 0.00 55 1012.2
20260905173027 95 240 2.0 5.0 0.00 0.00 0.00 56 1012.4
20260905171526 95 53 1.0 6.0 0.00 0.00 0.00 56 1012.4
20260905170026 94 326 1.0 6.0 0.00 0.00 0.00 57 1012.5
20260905164524 95 30 0.0 3.0 0.00 0.00 0.00 57 1012.5
20260905163023 95 13 0.0 4.0 0.00 0.00 0.00 59 1012.6
20260905161519 94 257 0.0 3.0 0.00 0.00 0.00 60 1012.5
20260905160036 94 250 1.0 3.0 0.00 0.00 0.00 59 1012.7
20260905154514 93 251 0.0 3.0 0.00 0.00 0.00 61 1012.7
20260905153012 91 267 0.0 2.0 0.00 0.00 0.00 63 1012.6
20260905151508 90 262 0.0 1.0 0.00 0.00 0.00 63 1012.4
20260905150006 89 253 1.0 4.0 0.00 0.00 0.00 66 1012.5
20260905144601 87 278 0.0 0.0 0.00 0.00 0.00 68 1012.2
20260905143058 86 250 0.0 0.0 0.00 0.00 0.00 69 1012.2
20260905141610 84 262 0.0 0.0 0.00 0.00 0.00 71 1012.1
20260905140059 82 250 0.0 0.0 0.00 0.00 0.00 71 1012.2
20260905134602 81 250 0.0 0.0 0.00 0.00 0.00 71 1012.3
20260905133053 80 240 0.0 0.0 0.00 0.00 0.00 71 1012.3
20260905131552 78 227 0.0 0.0 0.00 0.00 0.00 66 1012.4
20260905130039 77 227 0.0 0.0 0.00 0.00 0.00 66 1012.3
20260905124537 77 214 0.0 0.0 0.00 0.00 0.00 62 1012.4
20260905123035 76 216 0.0 0.0 0.00 0.00 0.00 59 1012.2
20260905121535 74 216 0.0 0.0 0.00 0.00 0.00 64 1012.1
20260905120037 74 151 0.0 0.0 0.00 0.00 0.00 66 1011.8
20260905114555 74 150 0.0 0.0 0.00 0.00 0.00 66 1011.6
20260905113031 74 150 0.0 0.0 0.00 0.00 0.00 66 1011.6
20260905111531 74 150 0.0 0.0 0.00 0.00 0.00 66 1011.3
20260905110029 74 150 0.0 0.0 0.00 0.00 0.00 70 1011.2
20260905104532 75 150 0.0 0.0 0.00 0.00 0.00 70 1011.2
20260905103129 75 150 0.0 1.0 0.00 0.00 0.00 70 1011.3
20260905101526 75 233 0.0 0.0 0.00 0.00 0.00 71 1011.3
20260905100025 75 198 1.0 6.0 0.00 0.00 0.00 72 1011.4
20260905094523 75 226 0.0 0.0 0.00 0.00 0.00 71 1011.3
20260905093025 75 226 0.0 0.0 0.00 0.00 0.00 72 1011.4
20260905091520 76 226 0.0 0.0 0.00 0.00 0.00 72 1011.5
20260905090019 76 226 0.0 0.0 0.00 0.00 0.00 73 1011.5
20260905084519 76 226 0.0 0.0 0.00 0.00 0.00 74 1011.6
20260905083018 76 226 0.0 0.0 0.00 0.00 0.00 73 1011.6
20260905081518 77 226 0.0 0.0 0.00 0.00 0.00 74 1011.9
20260905080021 78 226 0.0 0.0 0.00 0.00 0.00 73 1012.0
20260905074518 79 226 0.0 0.0 0.00 0.00 0.00 71 1012.0
20260905073019 78 219 0.0 0.0 0.00 0.00 0.00 70 1012.0
20260905071514 77 213 0.0 1.0 0.00 0.00 0.00 63 1012.0
20260905070012 76 205 0.0 3.0 0.00 0.00 0.00 59 1012.0
20260905064511 76 212 0.0 0.0 0.00 0.00 0.00 65 1011.9
20260905063006 77 212 0.0 0.0 0.00 0.00 0.00 72 1012.0
20260905061502 78 212 0.0 0.0 0.00 0.00 0.00 72 1012.0
20260905060001 78 212 0.0 0.0 0.00 0.00 0.00 71 1012.0
20260905054604 79 212 0.0 0.0 0.00 0.00 0.00 70 1011.9
20260905053058 79 212 0.0 1.0 0.00 0.00 0.00 70 1011.8
20260905051609 79 212 0.0 0.0 0.00 0.00 0.00 71 1011.7
20260905050104 79 212 0.0 0.0 0.00 0.00 0.00 72 1011.6
20260905044557 79 212 0.0 0.0 0.00 0.00 0.00 72 1011.8
20260905043051 79 212 0.0 1.0 0.00 0.00 0.00 73 1011.8
20260905041551 78 212 0.0 0.0 0.00 0.00 0.00 75 1011.9
20260905040055 79 212 0.0 1.0 0.00 0.00 0.00 76 1012.0
20260905034605 79 133 0.0 0.0 0.00 0.00 0.00 78 1012.0
20260905033103 80 133 0.0 0.0 0.00 0.00 0.00 78 1012.0